Simultaneous Nadir Overpasses (SNOs) Predictions

Prediction of SNOs between GOES-15 and LANDSAT-8 Satellite Orbit:

Table of predicted SNOs for the next 14.0 days since TLE Epoch: 5/23/2025
Index Date Time (GOES-15) GOES-15 Lat,Lon LANDSAT-8 Lat,Lon Distance(km) Time Diff (sec)
1 05/24/2025 06:02:06 -0.19, 61.57 -0.28, 62.03 52.69 80
2 05/26/2025 05:49:55 -0.19, 61.54 -0.90, 64.99 392.06 80
3 05/26/2025 18:13:59 0.17, 61.54 -0.22, 59.81 197.34 80
4 05/28/2025 17:59:09 0.18, 61.52 0.47, 62.75 141.25 80
5 05/29/2025 06:23:04 -0.16, 61.51 0.66, 57.61 443.38 80
6 05/30/2025 17:46:58 0.19, 61.50 1.11, 65.71 479.58 80
7 05/31/2025 06:10:53 -0.17, 61.49 0.02, 60.56 105.05 80
8 06/02/2025 05:56:02 -0.18, 61.47 -0.63, 63.52 233.46 80
9 06/02/2025 18:20:06 0.16, 61.47 -0.48, 58.33 356.37 80
10 06/04/2025 18:07:54 0.17, 61.45 0.13, 61.30 17.53 80
11 06/06/2025 17:53:03 0.17, 61.43 0.80, 64.25 321.07 80
